AirNav   Everest Fuels
 
 889 users online  

PN74 Hilltop Heliport
Troy, Pennsylvania, USA

GOING TO TROY?


FAA INFORMATION EFFECTIVE 18 JUNE 2020

Location

FAA Identifier: PN74
Lat/Long: 41-46-55.1800N 076-48-22.6400W
41-46.919667N 076-48.377333W
41.7819944,-76.8062889
(estimated)
Elevation: 1370 ft. / 418 m (estimated)
Variation: 12W (2005)
From city: 1 mile W of TROY, PA
Time zone: UTC -4 (UTC -5 during Standard Time)
Zip code: 16947

Heliport Operations

Heliport use: Private use, MEDICAL USE.
Activation date: 11/2006
Control tower: no
ARTCC: NEW YORK CENTER
FSS: WILLIAMSPORT FLIGHT SERVICE STATION
NOTAMs facility: FDC (NOTAM-D service not available)
Attendance: UNATNDD
Wind indicator: yes
Segmented circle: no

Heliport Communications

HEVUD DP: 128.425
WX AWOS-3 at N27 (16 nm E): 119.925 (570-265-1024)
  • APCH/DEP SVC PRVDD BY NEW YORK ARTCC (ZNY) ON 133.35/372,0 (SAYRE RCAG) WHEN ELMIRA APCH CLSD.

Nearby radio navigation aids

VOR radial/distance  VOR name  Freq  Var
ULWr164/21.1ELMIRA VOR/DME109.6512W
FQMr006/26.6WILLIAMSPORT VOR/DME114.4009W
SFKr087/28.0STONYFORK VOR/DME108.6008W
CFBr243/37.4BINGHAMTON VOR/DME112.2010W

 
NDB name  Hdg/Dist  Freq  Var  ID
ALPINE196/27.524512WALP .- .-.. .--.

Heliport Services

Runway Information

Helipad H1

Dimensions: 50 x 50 ft. / 15 x 15 m
Surface: turf, in fair condition
Runway edge lights: PERI
PORTABLE PERI LGTS PRVDD BY LOCAL EMS.
Latitude: 41-46.919667N
Longitude: 076-48.377333W
Elevation: 1370.0 ft.
Traffic pattern: leftleft
Markings: none, in fair condition

Heliport Ownership and Management from official FAA records

Ownership: Privately-owned
Owner: TROY EMS
366 GLASCOCK - SUITE 205
ALCOA, TN 33701
Phone 865-681-6137
Manager: JASON PATRICK, STI
366 GLASCOCK, SUITE 205, 366 GLASCOCK, SUITE 205
ALCOA, TN 33701
Phone 865-681-6137

Additional Remarks

FOR CD CTC NEW YORK ARTCC AT 631-468-1425.

Instrument Procedures

There are no published instrument procedures at PN74.

Some nearby airports with instrument procedures:

N27 - Bradford County Airport (16 nm E)
KELM - Elmira/Corning Regional Airport (23 nm N)
N38 - Wellsboro Johnston Airport (27 nm W)
KIPT - Williamsport Regional Airport (33 nm S)
KCZG - Tri-Cities Airport (36 nm NE)
 
Loc | Ops | Rwys | IFR | FBO | Links
Com | Nav | Svcs | Stats | Notes
Area around PN74 (Hilltop Heliport)
 
Road maps at: MapQuest Bing Google
 
Aerial photo
No photo
 
Sectional chart

 
Airport distance calculator
Flying to Hilltop Heliport? Find the distance to fly.

From to PN74

Sunrise and sunset
Times for 07-Jul-2020
 Local
(UTC-4)
 Zulu
(UTC)
Morning civil twilight05:0809:08
Sunrise05:4109:41
Sunset20:4300:43
Evening civil twilight21:1701:17

Current date and time
Zulu (UTC)  08-Jul-2020 01:32:33
Local (UTC-4)  07-Jul-2020 21:32:33
 
METAR
KELM 
22nm N 
080053Z AUTO 21006G15KT 10SM CLR 26/20 A2999 RMK AO2 SLP150 T02560200
KN38 
27nm W 
080115Z AUTO 20007KT 4SM -RA BKN031 BKN070 OVC100 21/20 A3007 RMK AO2
KIPT 
32nm S 
080120Z 00000KT 10SM BKN027 24/19 A3001 RMK AO2 T02440194
KITH 
44nm N 
080056Z 17007KT 10SM CLR 25/19 A3000 RMK AO2 SLP151 T02500194
TAF
KELM 
22nm N 
071727Z 0718/0818 19006KT P6SM SCT040 FM080900 VRB03KT 3SM BR SCT003 FM081400 22006KT P6SM SCT050
NOTAMs
Click for the latest NOTAMs
NOTAMs are issued by the DoD/FAA and will open in a separate window not controlled by AirNav.

 

 
 

Would you like to see your business listed on this page?

 If your business provides an interesting product or service to pilots, flight crews, aircraft, or users of the Hilltop Heliport, you should consider listing it here.  To start the listing process, click on the button below
 
Add a business
 

Other Pages about Hilltop Heliport

Update a link
 
Copyright © AirNav, LLC. All rights reserved. Privacy Policy  Contact